Location: Bruderhein
(53.8035°N, 112.9265°W)
Time: 20:42:16
(UTC+00:00)

Max Valier Satellite - Pass Details

Date: 03 April 2023
Orbit: 445 x 458 km, 97.2° (Epoch: 31 May)

Event Time Altitude Azimuth Distance (km) Brightness Sun altitude
Rises 02:46:26 0° 167° (SSE) 2,441 ? -6.1°
Reaches altitude 10° 02:48:26 10° 169° (S) 1,577 ? -6.4°
Maximum altitude 02:51:49 80° 256° (WSW) 466 ? -6.9°
Drops below altitude 10° 02:55:16 10° 345° (NNW) 1,605 ? -7.4°
Sets 02:57:20 0° 346° (NNW) 2,489 ? -7.7°
